Location: Gwatt
(46.7204°N, 7.6223°E)
Time: 02:13:28
(UTC+00:00)

ATLAS 2AS CENTAUR R/B - Pass Details

Date: 18 September 2020
Orbit: 939 x 1273 km, 63.7° (Epoch: 27 October)

Event Time Altitude Azimuth Distance (km) Brightness Sun altitude
Rises 21:01:24 0° 218° (SW) 4,191 5.7 -32.7°
Reaches altitude 10° 21:04:10 10° 219° (SW) 3,245 5.1 -33.0°
Enters shadow 21:04:49 13° 219° (SW) 3,027 4.9 -33.1°
Exits shadow 21:11:57 85° 269° (W) 1,282 2.9 -33.9°
Maximum altitude 21:12:08 86° 308° (NW) 1,280 2.9 -33.9°
Drops below altitude 10° 21:20:03 10° 39° (NE) 3,225 5.3 -34.8°
Sets 21:22:48 0° 40° (NE) 4,165 5.9 -35.1°
